This is the latest recevied weather packets stored in our database for station/object IW2NTF-3. If no packets are shown the sender has not sent any weather packets the latest 1 day(s).
| Time | Temp. | Humidity | Pressure | Rain* | Wind** | Luminosity | Snow |
|---|---|---|---|---|---|---|---|
| 1777971123 | 13.89° C | 87% | 1012.9 hPa | 0 mm | 1.34 m/s, 1° | 67 W/m² | - |
| 1777971063 | 13.89° C | 86% | 1013 hPa | 0 mm | 1.34 m/s, 355° | 69 W/m² | - |
| 1777971003 | 13.89° C | 87% | 1013 hPa | 0 mm | 1.34 m/s, 349° | 69 W/m² | - |
| 1777970943 | 13.89° C | 86% | 1013 hPa | 0 mm | 1.34 m/s, 345° | 70 W/m² | - |
| 1777970883 | 13.89° C | 87% | 1013 hPa | 0 mm | 1.34 m/s, 343° | 67 W/m² | - |
| 1777970823 | 13.89° C | 87% | 1013 hPa | 0 mm | 1.34 m/s, 341° | 63 W/m² | - |
| 1777970763 | 13.89° C | 87% | 1013 hPa | 0 mm | 1.34 m/s, 339° | 62 W/m² | - |
| 1777970703 | 13.89° C | 87% | 1013 hPa | 0 mm | 1.34 m/s, 340° | 60 W/m² | - |
| 1777970643 | 13.89° C | 87% | 1013 hPa | 0 mm | 1.34 m/s, 339° | 60 W/m² | - |
| 1777970584 | 13.89° C | 87% | 1012.9 hPa | 0 mm | 1.34 m/s, 339° | 60 W/m² | - |
| 1777970523 | 13.89° C | 87% | 1012.9 hPa | 0 mm | 1.34 m/s, 338° | 69 W/m² | - |
| 1777970464 | 13.89° C | 87% | 1012.9 hPa | 0 mm | 1.34 m/s, 343° | 76 W/m² | - |
| 1777970403 | 13.89° C | 87% | 1012.9 hPa | 0 mm | 1.34 m/s, 349° | 83 W/m² | - |
| 1777970343 | 13.89° C | 87% | 1012.9 hPa | 0 mm | 1.79 m/s, 351° | 88 W/m² | - |
| 1777970283 | 13.89° C | 87% | 1012.9 hPa | 0 mm | 1.79 m/s, 354° | 91 W/m² | - |
| 1777970223 | 13.89° C | 87% | 1012.9 hPa | 0 mm | 1.79 m/s, 356° | 95 W/m² | - |
| 1777970164 | 13.89° C | 87% | 1012.9 hPa | 0 mm | 1.79 m/s, 357° | 95 W/m² | - |
| 1777970103 | 13.89° C | 87% | 1012.9 hPa | 0 mm | 1.79 m/s, 356° | 98 W/m² | - |
| 1777970043 | 13.89° C | 87% | 1012.9 hPa | 0 mm | 2.24 m/s, 358° | 105 W/m² | - |
| 1777969983 | 13.89° C | 87% | 1012.9 hPa | 0 mm | 2.24 m/s, 359° | 114 W/m² | - |
| 1777969923 | 13.89° C | 87% | 1012.9 hPa | 0 mm | 2.24 m/s, 1° | 120 W/m² | - |
| 1777969863 | 13.89° C | 87% | 1012.9 hPa | 0 mm | 2.24 m/s, 360° | 132 W/m² | - |
| 1777969803 | 13.89° C | 87% | 1012.9 hPa | 0 mm | 2.24 m/s, 359° | 139 W/m² | - |
| 1777969743 | 13.89° C | 87% | 1012.9 hPa | 0 mm | 2.24 m/s, 358° | 149 W/m² | - |
| 1777969684 | 13.89° C | 87% | 1012.9 hPa | 0 mm | 2.24 m/s, 357° | 158 W/m² | - |
* Rain latest hour (hover to see other rain measurements)
** Current wind speed in m/s (hover to see current wind gust speed)